"2010-11-10 00:00:00",322861,7.645,80.2,4.644,0.296,3.757,99.38838,-2.258,-1.028,98.2,0,109.5,13.6,-1.51,42.2
"2010-11-10 00:00:30",322862,7.456,81.1,2.615,0.638,3.426,99.38894,-2.257,-1.021,98.2,0,109.5,13.6,-1.51,43.1
"2010-11-10 00:01:00",322863,7.289,80.9,3.711,0.766,3.749,99.40253,-2.222,-1.005,98.2,0,109.5,13.6,-1.48,42.9
"2010-11-10 00:01:30",322864,7.098,87.1,4.779,0.646,3.739,99.42065,-2.176,-0.99,98.3,0,109.5,13.6,-1.43,49.1
"2010-11-10 00:02:00",322865,7.025,83.8,4.831,0.699,3.36,99.42236,-2.172,-0.99,98.3,0,109.5,13.6,-1.43,45.8
"2010-11-10 00:02:30",322866,6.356,87.2,4.377,0.861,3.098,99.41159,-2.199,-0.984,98.3,0,109.5,13.6,-1.46,49.2
"2010-11-10 00:03:00",322867,6.524,83.1,4.018,0.74,2.848,99.40054,-2.227,-1.003,98.3,0,109.5,13.6,-1.48,45.1
"2010-11-10 00:03:30",322868,6.303,87.3,6.205,0.558,3.044,99.3997,-2.23,-1.018,98.3,0,109.5,13.6,-1.49,49.3
"2010-11-10 00:04:00",322869,5.977,85.1,4.434,1.082,2.208,99.39036,-2.253,-1.019,98.3,0,109.5,13.6,-1.51,47.1
"2010-11-10 00:04:30",322870,5.196,87.7,6.902,1.06,1.069,99.38837,-2.258,-1.129,98.2,0,109.5,13.6,-1.51,49.7
"2010-11-10 00:05:00",322871,4.991,75.99,8.94,0.649,-1.211,99.37648,-2.289,-1.237,98.1,0,109.5,13.6,-1.54,38.0
"2010-11-10 00:05:30",322872,6.896,86.8,6.71,1.04,2.231,99.35751,-2.337,-1.123,98.3,0,109.5,13.6,-1.59,48.8
"2010-11-10 00:06:00",322873,7.503,84.6,3.587,0.634,3.068,99.35439,-2.345,-1.081,98.3,0,109.5,13.6,-1.60,46.6
"2010-11-10 00:06:30",322874,7.837,80.6,4.158,0.672,3.467,99.35439,-2.345,-1.107,98.3,0,109.5,13.61,-1.60,42.6
"2010-11-10 00:07:00",322875,8.18,82.5,3.664,0.566,3.903,99.35468,-2.344,-1.11,98.3,0,109.5,13.61,-1.60,44.5
"2010-11-10 00:07:30",322876,7.896,81.1,3.512,0.671,4.267,99.35439,-2.345,-1.102,98.4,0,109.5,13.61,-1.60,43.1
"2010-11-10 00:08:00",322877,7.267,77.89,4.116,0.718,3.997,99.35384,-2.346,-1.104,98.4,0,109.5,13.61,-1.60,39.9
"2010-11-10 00:08:30",322878,7.116,84.2,4.638,0.675,4.071,99.3374,-2.388,-1.14,98.4,0,109.5,13.61,-1.64,46.2
"2010-11-10 00:09:00",322879,7.078,84.7,4.162,0.658,3.96,99.32777,-2.413,-1.152,98.4,0,109.5,13.61,-1.67,46.7
"2010-11-10 00:09:30",322880,7.008,84,3.544,0.788,3.903,99.32127,-2.429,-1.163,98.4,0,109.5,13.6,-1.69,46.0
"2010-11-10 00:10:00",322881,7.514,85.9,4.98,0.684,4.036,99.32042,-2.432,-1.172,98.4,0,109.5,13.61,-1.69,47.9
"2010-11-10 00:10:30",322882,7.127,85.1,3.628,0.667,3.918,99.32154,-2.429,-1.177,98.4,0,109.5,13.61,-1.69,47.1
"2010-11-10 00:11:00",322883,6.787,84.8,4.062,0.768,3.844,99.32069,-2.431,-1.202,98.4,0,109.5,13.61,-1.69,46.8
"2010-11-10 00:11:30",322884,7.517,82.6,6.175,0.834,3.884,99.32098,-2.43,-1.188,98.4,0,109.5,13.61,-1.69,44.6
"2010-11-10 00:12:00",322885,7.997,80.8,3.871,0.68,3.727,99.32239,-2.427,-1.21,98.4,0,109.5,13.61,-1.68,42.8
"2010-11-10 00:12:30",322886,7.333,82.8,3.557,0.708,3.681,99.32182,-2.428,-1.178,98.4,0,109.5,13.61,-1.68,44.8
"2010-11-10 00:13:00",322887,7.051,83.6,4.036,0.757,3.447,99.32182,-2.428,-1.207,98.5,0,109.5,13.61,-1.68,45.6
"2010-11-10 00:13:30",322888,6.988,83.7,3.883,0.673,3.735,99.31956,-2.434,-1.216,98.4,0,109.5,13.61,-1.69,45.7
"2010-11-10 00:14:00",322889,6.781,83,4.445,0.524,3.455,99.31615,-2.443,-1.218,98.4,0,109.5,13.61,-1.70,45.0
"2010-11-10 00:14:30",322890,6.851,80.2,4.714,0.842,3.206,99.3068,-2.466,-1.223,98.5,0,109.5,13.61,-1.72,42.2
"2010-11-10 00:15:00",322891,7.109,83.7,5.411,0.424,3.336,99.29803,-2.489,-1.248,98.5,0,109.5,13.61,-1.75,45.7
"2010-11-10 00:15:30",322892,6.41,85.6,6.723,0.768,3.047,99.29012,-2.509,-1.24,98.5,0,109.5,13.61,-1.77,47.6
"2010-11-10 00:16:00",322893,6.828,89.2,6.113,0.628,2.765,99.28954,-2.51,-1.246,98.5,0,109.5,13.61,-1.77,51.2
"2010-11-10 00:16:30",322894,7.053,85.6,3.162,0.753,2.238,99.28954,-2.51,-1.248,98.5,0,109.5,13.61,-1.77,47.6
"2010-11-10 00:17:00",322895,7.435,83.7,4.294,0.602,2.283,99.29406,-2.499,-1.256,98.5,0,109.5,13.61,-1.76,45.7
"2010-11-10 00:17:30",322896,7.22,85.5,3.387,0.953,2.338,99.29575,-2.494,-1.25,98.5,0,109.5,13.61,-1.75,47.5
"2010-11-10 00:18:00",322897,7.179,83.8,5.959,0.742,2.564,99.30027,-2.483,-1.248,98.5,0,109.5,13.61,-1.74,45.8
"2010-11-10 00:18:30",322898,7.623,77.4,3.499,0.817,2.701,99.30478,-2.471,-1.245,98.5,0,109.5,13.61,-1.73,39.4
"2010-11-10 00:19:00",322899,7.639,79.55,4.446,0.873,2.747,99.3059,-2.469,-1.26,98.5,0,109.5,13.61,-1.73,41.6
"2010-11-10 00:19:30",322900,8.18,80,3.758,0.623,2.839,99.30082,-2.482,-1.255,98.5,0,109.5,13.6,-1.74,42.0
"2010-11-10 00:20:00",322901,7.882,79.05,5.711,0.784,2.778,99.29968,-2.484,-1.253,98.5,0,109.5,13.61,-1.74,41.1
"2010-11-10 00:20:30",322902,7.829,82.3,5.081,0.808,2.894,99.29797,-2.489,-1.251,98.6,0,109.5,13.61,-1.75,44.3
"2010-11-10 00:21:00",322903,8.5,82.8,4.929,0.786,2.951,99.29937,-2.485,-1.235,98.6,0,109.5,13.61,-1.74,44.8
"2010-11-10 00:21:30",322904,8.87,81.5,3.982,0.764,3.275,99.29882,-2.487,-1.254,98.6,0,109.5,13.61,-1.74,43.5
"2010-11-10 00:22:00",322905,8.91,81.3,3.043,0.752,3.25,99.30928,-2.46,-1.245,98.6,0,109.5,13.61,-1.72,43.3
"2010-11-10 00:22:30",322906,9.21,80.3,4.166,0.693,4.156,99.32088,-2.43,-1.241,98.6,0,109.5,13.61,-1.69,42.3
"2010-11-10 00:23:00",322907,8.7,80.9,5.052,0.674,4.392,99.32796,-2.412,-1.237,98.6,0,109.5,13.61,-1.67,42.9
"2010-11-10 00:23:30",322908,8.71,84.6,5.277,0.851,4.59,99.33559,-2.393,-1.246,98.6,0,109.5,13.61,-1.65,46.6
"2010-11-10 00:24:00",322909,8.39,84.2,4.631,0.709,4.354,99.33757,-2.388,-1.231,98.6,0,109.5,13.61,-1.64,46.2
"2010-11-10 00:24:30",322910,9.24,83.8,4.584,0.924,4.369,99.33926,-2.384,-1.226,98.6,0,109.5,13.61,-1.64,45.8
"2010-11-10 00:25:00",322911,8.66,85.4,3.86,0.804,4.277,99.33983,-2.382,-1.229,98.6,0,109.5,13.61,-1.64,47.4
"2010-11-10 00:25:30",322912,8.59,88.9,4.961,0.852,4.496,99.33898,-2.384,-1.225,98.6,0,109.5,13.61,-1.64,50.9
"2010-11-10 00:26:00",322913,8.11,87.9,3.792,0.806,4.168,99.34151,-2.378,-1.213,98.6,0,109.5,13.61,-1.63,49.9
"2010-11-10 00:26:30",322914,7.67,91.6,3.768,0.818,4.126,99.3401,-2.381,-1.211,98.7,0,109.5,13.61,-1.64,53.6
"2010-11-10 00:27:00",322915,7.72,92.4,6.292,0.965,3.82,99.33983,-2.382,-1.222,98.7,0,109.5,13.61,-1.64,54.4
"2010-11-10 00:27:30",322916,7.953,91.9,3.783,0.913,4.08,99.33983,-2.382,-1.212,98.6,0,109.5,13.61,-1.64,53.9
"2010-11-10 00:28:00",322917,8.19,87,5.459,0.679,3.844,99.34151,-2.378,-1.208,98.6,0,109.5,13.61,-1.63,49.0
"2010-11-10 00:28:30",322918,7.683,87.3,8.78,0.724,3.851,99.33983,-2.382,-1.216,98.7,0,109.5,13.62,-1.64,49.3
"2010-11-10 00:29:00",322919,7.934,94.1,4.839,0.717,3.868,99.34321,-2.374,-1.232,98.7,0,109.5,13.62,-1.63,56.1
"2010-11-10 00:29:30",322920,7.763,90.1,5.228,0.76,3.81,99.34546,-2.368,-1.217,98.7,0,109.5,13.61,-1.62,52.1
"2010-11-10 00:30:00",322921,7.319,85,7.445,0.642,3.58,99.34404,-2.371,-1.226,98.7,0,109.5,13.62,-1.63,47.0
"2010-11-10 00:30:30",322922,7.372,86.5,5.36,0.76,3.645,99.34234,-2.376,-1.219,98.7,0,109.5,13.62,-1.63,48.5
"2010-11-10 00:31:00",322923,6.893,88.7,7.183,0.764,3.567,99.33526,-2.394,-1.231,98.7,0,109.5,13.62,-1.65,50.7
"2010-11-10 00:31:30",322924,6.427,91.4,5.092,0.83,3.377,99.32987,-2.408,-1.22,98.7,0,109.5,13.62,-1.66,53.4
"2010-11-10 00:32:00",322925,6.265,90.3,4.834,0.701,3.33,99.32561,-2.418,-1.25,98.7,0,109.5,13.62,-1.67,52.3
"2010-11-10 00:32:30",322926,6.3,87.4,7.754,1.019,2.303,99.31798,-2.438,-1.247,98.7,0,109.5,13.62,-1.69,49.4
"2010-11-10 00:33:00",322927,5.02,98,8.19,1.353,1.158,99.31373,-2.449,-1.308,98.6,0,109.5,13.61,-1.71,60.0
"2010-11-10 00:33:30",322928,5.423,87.4,8.67,1.175,0.66,99.31175,-2.454,-1.466,98.5,0,109.5,13.61,-1.71,49.4
"2010-11-10 00:34:00",322929,5.915,87.7,6.081,1.067,2.505,99.31287,-2.451,-1.308,98.7,0,109.5,13.61,-1.71,49.7
"2010-11-10 00:34:30",322930,6.445,85.2,6.385,0.847,3.505,99.31175,-2.454,-1.291,98.7,0,109.5,13.61,-1.71,47.2
"2010-11-10 00:35:00",322931,5.969,92.8,6.039,0.934,3.59,99.31231,-2.452,-1.301,98.7,0,109.5,13.61,-1.71,54.8
"2010-11-10 00:35:30",322932,6.132,98.8,4.592,0.779,4.063,99.31147,-2.454,-1.26,98.7,0,109.5,13.61,-1.71,60.8
"2010-11-10 00:36:00",322933,5.689,91.9,8.53,0.7,3.508,99.31259,-2.452,-1.276,98.7,0,109.5,13.61,-1.71,53.9
"2010-11-10 00:36:30",322934,5.326,96.3,5.979,0.708,3.193,99.31231,-2.452,-1.288,98.7,0,109.5,13.61,-1.71,58.3
"2010-11-10 00:37:00",322935,4.992,100.6,8.75,1.163,1.585,99.31203,-2.453,-1.412,98.6,0,109.5,13.61,-1.71,62.6
"2010-11-10 00:37:30",322936,3.259,84.3,4.754,0.704,-1.557,99.31175,-2.454,-1.588,98.4,0,109.5,13.61,-1.71,46.3
"2010-11-10 00:38:00",322937,4.387,92.7,7.423,1.229,0.57,99.31147,-2.454,-1.457,98.6,0,109.5,13.62,-1.71,54.7
"2010-11-10 00:38:30",322938,5.229,89.5,9.87,1.469,2.124,99.31231,-2.452,-1.397,98.7,0,109.5,13.62,-1.71,51.5
"2010-11-10 00:39:00",322939,5.976,90.1,4.563,0.731,4.033,99.31203,-2.453,-1.271,98.7,0,109.5,13.62,-1.71,52.1
"2010-11-10 00:39:30",322940,6.087,91.1,6.107,0.739,3.628,99.31287,-2.451,-1.301,98.8,0,109.5,13.62,-1.71,53.1
"2010-11-10 00:40:00",322941,5.389,99.3,5.603,0.796,3.569,99.31118,-2.455,-1.3,98.8,0,109.5,13.62,-1.71,61.3
"2010-11-10 00:40:30",322942,4.958,102.9,8.66,0.943,2.548,99.3109,-2.456,-1.381,98.7,0,109.5,13.62,-1.71,64.9
"2010-11-10 00:41:00",322943,3.515,96.9,11.23,1.111,0.621,99.31118,-2.455,-1.454,98.6,0,109.5,13.62,-1.71,58.9
"2010-11-10 00:41:30",322944,3.982,84.7,6.254,1.358,-0.618,99.31258,-2.452,-1.479,98.6,0,109.5,13.63,-1.71,46.7
"2010-11-10 00:42:00",322945,4.769,88.5,8.04,1.33,0.234,99.30408,-2.473,-1.556,98.5,0,109.5,13.63,-1.73,50.5
"2010-11-10 00:42:30",322946,5.813,98.5,8.31,0.686,3.68,99.29333,-2.501,-1.356,98.8,0,109.5,13.63,-1.76,60.5
"2010-11-10 00:43:00",322947,6.639,95.2,10.16,0.843,3.73,99.28625,-2.519,-1.333,98.8,0,109.5,13.63,-1.78,57.2
"2010-11-10 00:43:30",322948,6.633,81.5,5.038,0.861,3.498,99.2803,-2.534,-1.339,98.8,0,109.5,13.63,-1.79,43.5
"2010-11-10 00:44:00",322949,6.404,81.6,7.486,0.855,2.975,99.27917,-2.537,-1.34,98.8,0,109.5,13.63,-1.79,43.6
"2010-11-10 00:44:30",322950,6.795,76.32,4.537,0.835,2.837,99.27944,-2.536,-1.36,98.8,0,109.5,13.63,-1.79,38.3
"2010-11-10 00:45:00",322951,6.987,78.87,4.639,0.617,2.845,99.27973,-2.535,-1.36,98.8,0,109.5,13.63,-1.79,40.9
"2010-11-10 00:45:30",322952,6.482,78.87,4.993,0.622,2.55,99.27944,-2.536,-1.409,98.7,0,109.4,13.62,-1.79,40.9
"2010-11-10 00:46:00",322953,5.354,71.29,6.329,1.23,0.721,99.28282,-2.527,-1.494,98.7,0,109.5,13.62,-1.78,33.3
"2010-11-10 00:46:30",322954,4.776,66.96,6.484,1.435,-0.116,99.28282,-2.527,-1.597,98.6,0,109.5,13.63,-1.78,29.0
"2010-11-10 00:47:00",322955,5.699,66.51,6.225,1.378,0.627,99.28198,-2.53,-1.478,98.7,0,109.5,13.63,-1.79,28.5
"2010-11-10 00:47:30",322956,6.051,79.73,6.635,0.908,3.017,99.28198,-2.53,-1.392,98.8,0,109.5,13.63,-1.79,41.7
"2010-11-10 00:48:00",322957,5.984,75.27,9.07,0.83,3.457,99.27942,-2.536,-1.377,98.8,0,109.5,13.63,-1.79,37.3
"2010-11-10 00:48:30",322958,7.122,80,7.766,0.856,3.253,99.27998,-2.535,-1.38,98.8,0,109.5,13.63,-1.79,42.0
"2010-11-10 00:49:00",322959,6.783,80.4,5.771,0.752,3.02,99.26951,-2.561,-1.392,98.8,0,109.5,13.63,-1.82,42.4
"2010-11-10 00:49:30",322960,7.218,79.12,3.877,0.648,2.441,99.26326,-2.577,-1.409,98.8,0,109.5,13.62,-1.83,41.1
"2010-11-10 00:50:00",322961,6.807,76.51,6.589,1.057,1.532,99.25675,-2.594,-1.473,98.8,0,109.5,13.62,-1.85,38.5
"2010-11-10 00:50:30",322962,6.927,80.2,6.49,0.973,1.702,99.25674,-2.594,-1.568,98.6,0,109.5,13.62,-1.85,42.2
"2010-11-10 00:51:00",322963,6.532,82.5,7.842,1.149,1.712,99.25703,-2.593,-1.521,98.7,0,109.4,13.62,-1.85,44.5
"2010-11-10 00:51:30",322964,6.619,82.1,4.681,0.804,2.82,99.25505,-2.598,-1.404,98.8,0,109.5,13.62,-1.86,44.1
"2010-11-10 00:52:00",322965,6.984,80.7,4.325,0.669,3.554,99.25477,-2.599,-1.423,98.8,0,109.5,13.62,-1.86,42.7
"2010-11-10 00:52:30",322966,6.998,83.7,4.242,0.71,3.376,99.25109,-2.608,-1.418,98.8,0,109.5,13.62,-1.87,45.7
"2010-11-10 00:53:00",322967,6.841,85,3.99,0.682,3.269,99.25137,-2.608,-1.426,98.8,0,109.5,13.62,-1.86,47.0
"2010-11-10 00:53:30",322968,7.33,80.8,5.63,0.682,2.947,99.25137,-2.608,-1.431,98.8,0,109.5,13.62,-1.86,42.8
"2010-11-10 00:54:00",322969,6.578,85,8.39,0.758,2.93,99.2522,-2.605,-1.431,98.8,0,109.4,13.62,-1.86,47.0
"2010-11-10 00:54:30",322970,7.114,80.9,4.908,0.698,2.819,99.25164,-2.607,-1.437,98.9,0,109.5,13.62,-1.86,42.9
"2010-11-10 00:55:00",322971,6.879,85.9,4.5,0.805,2.67,99.25193,-2.606,-1.449,98.8,0,109.5,13.62,-1.86,47.9
"2010-11-10 00:55:30",322972,6.746,90.8,3.809,0.717,2.775,99.25193,-2.606,-1.447,98.9,0,109.4,13.62,-1.86,52.8
"2010-11-10 00:56:00",322973,5.569,80.8,10.53,1.365,0.323,99.2522,-2.605,-1.622,98.7,0,109.5,13.63,-1.86,42.8
"2010-11-10 00:56:30",322974,4.399,76.8,7.038,1.091,-0.475,99.2522,-2.605,-1.637,98.7,0,109.4,13.63,-1.86,38.8
"2010-11-10 00:57:00",322975,6.006,85,6.421,1.34,1.813,99.2522,-2.605,-1.472,98.8,0,109.4,13.63,-1.86,47.0
"2010-11-10 00:57:30",322976,6.109,85.5,5.976,1.144,2.129,99.2522,-2.605,-1.532,98.8,0,109.4,13.63,-1.86,47.5
"2010-11-10 00:58:00",322977,6.211,92.6,6.273,0.89,3.25,99.2522,-2.605,-1.486,98.8,0,109.4,13.63,-1.86,54.6
"2010-11-10 00:58:30",322978,6.55,90.5,6.299,0.787,3.279,99.2522,-2.605,-1.45,98.8,0,109.4,13.63,-1.86,52.5
"2010-11-10 00:59:00",322979,6.854,85.2,4.232,0.826,3.351,99.2522,-2.605,-1.459,98.9,0,109.5,13.63,-1.86,47.2
"2010-11-10 00:59:30",322980,6.711,92.8,6.302,0.764,3.484,99.2522,-2.605,-1.468,98.9,0,109.5,13.63,-1.86,54.8
"2010-11-10 01:00:00",322981,6.976,86.9,2.29,0.702,2.868,99.2522,-2.605,-1.46,98.9,0,109.5,13.63,-1.86,48.9
"2010-11-10 01:00:30",322982,7.064,86.3,4.545,0.655,2.962,99.2522,-2.605,-1.457,98.9,0,109.5,13.63,-1.86,48.3
"2010-11-10 01:01:00",322983,6.723,90,4.343,0.667,3.046,99.2522,-2.605,-1.461,98.9,0,109.5,13.63,-1.86,52.0
"2010-11-10 01:01:30",322984,6.712,88.4,3.535,0.76,2.767,99.25079,-2.609,-1.474,98.9,0,109.5,13.63,-1.87,50.4
"2010-11-10 01:02:00",322985,6.446,91.2,3.369,0.555,2.83,99.24767,-2.617,-1.537,98.8,0,109.5,13.63,-1.87,53.2
"2010-11-10 01:02:30",322986,5.524,86.3,6.35,1.166,0.716,99.24031,-2.636,-1.653,98.7,0,109.5,13.63,-1.89,48.3
"2010-11-10 01:03:00",322987,5.062,84.6,5.283,0.859,-0.712,99.23917,-2.639,-1.666,98.7,0,109.5,13.63,-1.90,46.6
"2010-11-10 01:03:30",322988,6.622,89.8,4.571,0.935,2.989,99.23889,-2.639,-1.541,98.8,0,109.5,13.63,-1.90,51.8
"2010-11-10 01:04:00",322989,6.775,91.5,3.351,0.75,3.581,99.23946,-2.638,-1.485,98.9,0,109.5,13.63,-1.90,53.5
"2010-11-10 01:04:30",322990,6.687,91.1,4.273,0.569,3.965,99.23917,-2.639,-1.485,98.9,0,109.5,13.63,-1.90,53.1
"2010-11-10 01:05:00",322991,6.397,92.3,3.976,0.653,3.664,99.23861,-2.64,-1.467,98.9,0,109.5,13.63,-1.90,54.3
"2010-11-10 01:05:30",322992,6.613,96.4,5.72,0.541,3.108,99.24002,-2.636,-1.554,98.9,0,109.4,13.63,-1.89,58.4
"2010-11-10 01:06:00",322993,5.97,97.5,7.746,1.073,1.684,99.23804,-2.642,-1.582,98.8,0,109.5,13.63,-1.90,59.5
"2010-11-10 01:06:30",322994,4.584,87.8,5.736,0.718,-0.897,99.23833,-2.641,-1.609,98.8,0,109.5,13.63,-1.90,49.8
"2010-11-10 01:07:00",322995,5.935,94.4,6.335,1.33,1.944,99.24031,-2.636,-1.549,98.8,0,109.5,13.63,-1.89,56.4
"2010-11-10 01:07:30",322996,6.576,97.6,5.53,0.871,3.466,99.23833,-2.641,-1.494,98.9,0,109.5,13.63,-1.90,59.6
"2010-11-10 01:08:00",322997,6.468,98.5,5.653,0.785,3.425,99.24117,-2.634,-1.498,98.9,0,109.5,13.63,-1.89,60.5
"2010-11-10 01:08:30",322998,6.332,97.1,3.873,0.701,4.101,99.24117,-2.634,-1.464,98.9,0,109.5,13.63,-1.89,59.1
"2010-11-10 01:09:00",322999,6.575,97.5,3.513,0.633,3.341,99.24229,-2.631,-1.481,98.9,0,109.5,13.63,-1.89,59.5
"2010-11-10 01:09:30",323000,6.591,96,3.906,0.634,2.997,99.24117,-2.634,-1.542,98.9,0,109.5,13.62,-1.89,58.0
"2010-11-10 01:10:00",323001,5.997,95.5,5.911,1.134,1.859,99.24031,-2.636,-1.567,98.8,0,109.5,13.63,-1.89,57.5
"2010-11-10 01:10:30",323002,4.936,86.9,4.352,1.005,-0.464,99.23889,-2.639,-1.689,98.7,0,109.5,13.63,-1.90,48.9
"2010-11-10 01:11:00",323003,6.663,96.2,3.683,0.523,3.435,99.23493,-2.649,-1.513,98.9,0,109.5,13.63,-1.91,58.2
"2010-11-10 01:11:30",323004,6.371,95,3.621,0.837,3.716,99.23464,-2.65,-1.471,98.9,0,109.5,13.63,-1.91,57.0
"2010-11-10 01:12:00",323005,6.636,97.5,2.953,0.657,3.64,99.23068,-2.66,-1.47,98.9,0,109.5,13.63,-1.92,59.5
"2010-11-10 01:12:30",323006,6.166,93.5,4.855,1.042,2.591,99.2253,-2.674,-1.541,98.9,0,109.5,13.63,-1.93,55.5
"2010-11-10 01:13:00",323007,6.538,94.9,4.052,0.752,2.775,99.22076,-2.686,-1.569,98.9,0,109.5,13.63,-1.94,56.9
"2010-11-10 01:13:30",323008,5.429,91.2,5.666,1.21,1.119,99.21822,-2.692,-1.547,98.9,0,109.5,13.63,-1.95,53.2
"2010-11-10 01:14:00",323009,6.099,92.9,5.471,1.13,2.383,99.21822,-2.692,-1.552,98.9,0,109.5,13.63,-1.95,54.9
"2010-11-10 01:14:30",323010,6.08,93.1,6.606,1.165,2.288,99.21822,-2.692,-1.551,98.9,0,109.5,13.63,-1.95,55.1
"2010-11-10 01:15:00",323011,6.711,95.1,4.728,0.921,3.048,99.21822,-2.692,-1.542,98.9,0,109.5,13.64,-1.95,57.1
"2010-11-10 01:15:30",323012,6.309,94.8,5.962,1.016,2.307,99.21822,-2.692,-1.595,98.9,0,109.5,13.64,-1.95,56.8
"2010-11-10 01:16:00",323013,6.636,95.9,5.546,0.954,3.265,99.21793,-2.693,-1.545,98.9,0,109.5,13.64,-1.95,57.9
"2010-11-10 01:16:30",323014,6.718,95.3,4.565,0.718,3.366,99.2117,-2.709,-1.539,98.9,0,109.5,13.64,-1.97,57.3
"2010-11-10 01:17:00",323015,6.711,94.3,3.497,0.76,3.439,99.20206,-2.733,-1.54,98.9,0,109.5,13.64,-1.99,56.3
"2010-11-10 01:17:30",323016,6.634,95.8,3.641,0.483,3.198,99.19896,-2.741,-1.551,99,0,109.5,13.63,-2.00,57.8
"2010-11-10 01:18:00",323017,6.501,96.2,2.799,0.767,3.105,99.19328,-2.756,-1.549,98.9,0,109.5,13.63,-2.01,58.2
"2010-11-10 01:18:30",323018,6.625,95.4,3.39,0.743,2.971,99.1879,-2.769,-1.546,98.9,0,109.5,13.63,-2.03,57.4
"2010-11-10 01:19:00",323019,7.021,97.3,3.785,0.709,2.556,99.1845,-2.778,-1.563,98.9,0,109.5,13.63,-2.04,59.3
"2010-11-10 01:19:30",323020,6.078,94.7,9.58,1.164,1.958,99.18422,-2.779,-1.619,98.9,0,109.5,13.63,-2.04,56.7
"2010-11-10 01:20:00",323021,4.716,94.6,11.13,0.982,-0.926,99.1845,-2.778,-1.841,98.7,0,109.4,13.63,-2.04,56.6
"2010-11-10 01:20:30",323022,5.044,92.2,4.65,1.084,0.231,99.18507,-2.776,-1.724,98.8,0,109.5,13.64,-2.03,54.2
"2010-11-10 01:21:00",323023,5.67,96.9,6.779,1.156,1.624,99.18422,-2.779,-1.69,98.8,0,109.5,13.64,-2.04,58.9
"2010-11-10 01:21:30",323024,6.671,100,3.944,0.701,3.422,99.18422,-2.779,-1.552,99,0,109.5,13.63,-2.04,62.0
"2010-11-10 01:22:00",323025,6.502,101.6,3.944,0.478,4.178,99.18422,-2.779,-1.589,98.9,0,109.5,13.63,-2.04,63.6
"2010-11-10 01:22:30",323026,6.177,99.7,4.165,0.76,3.378,99.18422,-2.779,-1.575,99,0,109.5,13.63,-2.04,61.7
"2010-11-10 01:23:00",323027,6.456,98,3.281,0.792,3.071,99.18422,-2.779,-1.58,98.9,0,109.4,13.63,-2.04,60.0
"2010-11-10 01:23:30",323028,6.152,96.5,5.285,1.067,1.743,99.18422,-2.779,-1.718,98.8,0,109.4,13.63,-2.04,58.5
"2010-11-10 01:24:00",323029,5.414,91.6,6.606,1.149,-0.03,99.18422,-2.779,-1.85,98.7,0,109.4,13.63,-2.04,53.6
"2010-11-10 01:24:30",323030,5.289,94.4,7.458,1.111,1.174,99.18422,-2.779,-1.696,98.9,0,109.5,13.63,-2.04,56.4
"2010-11-10 01:25:00",323031,5.898,103.8,5.483,0.866,3.583,99.18422,-2.779,-1.62,98.9,0,109.5,13.63,-2.04,65.8
"2010-11-10 01:25:30",323032,5.671,103.3,3.415,0.863,3.81,99.18422,-2.779,-1.609,98.9,0,109.5,13.63,-2.04,65.3
"2010-11-10 01:26:00",323033,6.208,101,4.378,0.745,3.473,99.18422,-2.779,-1.583,99,0,109.5,13.63,-2.04,63.0
"2010-11-10 01:26:30",323034,6.549,100,3.045,0.734,2.912,99.18422,-2.779,-1.584,98.9,0,109.5,13.63,-2.04,62.0
"2010-11-10 01:27:00",323035,5.769,95.6,6.501,1.177,0.636,99.18422,-2.779,-1.831,98.7,0,109.5,13.63,-2.04,57.6
"2010-11-10 01:27:30",323036,5.378,96,6.367,1.242,0.465,99.18422,-2.779,-1.751,98.8,0,109.5,13.64,-2.04,58.0
"2010-11-10 01:28:00",323037,5.06,95.4,6.216,1.049,0.44,99.18422,-2.779,-1.743,98.8,0,109.5,13.64,-2.04,57.4
"2010-11-10 01:28:30",323038,6.567,103.5,4.285,0.588,4.131,99.18422,-2.779,-1.584,99,0,109.5,13.64,-2.04,65.5
"2010-11-10 01:29:00",323039,6.382,104.4,4.615,0.431,4.266,99.18422,-2.779,-1.601,99,0,109.5,13.65,-2.04,66.4
"2010-11-10 01:29:30",323040,6.304,104.2,4.294,0.597,3.864,99.18422,-2.779,-1.576,99,0,109.5,13.65,-2.04,66.2
"2010-11-10 01:30:00",323041,6.491,102.9,4.846,0.345,3.156,99.18422,-2.779,-1.601,98.9,0,109.5,13.64,-2.04,64.9
"2010-11-10 01:30:30",323042,4.923,96.7,5.527,1.156,0.658,99.18422,-2.779,-1.683,98.8,0,109.4,13.64,-2.04,58.7
"2010-11-10 01:31:00",323043,5.029,102.8,6.264,1.184,0.856,99.18422,-2.779,-1.834,98.7,0,109.5,13.64,-2.04,64.8
"2010-11-10 01:31:30",323044,5.803,104.4,4.666,1.115,2.782,99.18422,-2.779,-1.619,98.9,0,109.5,13.65,-2.04,66.4
"2010-11-10 01:32:00",323045,5.765,107.6,5.483,0.969,3.389,99.18422,-2.779,-1.592,99,0,109.4,13.65,-2.04,69.6
"2010-11-10 01:32:30",323046,5.669,109.5,5.393,0.896,3.161,99.1845,-2.778,-1.639,98.9,0,109.5,13.65,-2.04,71.5
"2010-11-10 01:33:00",323047,5.437,107.1,7.081,1.085,2.805,99.18592,-2.774,-1.578,98.9,0,109.5,13.65,-2.03,69.1
"2010-11-10 01:33:30",323048,5.42,112.1,4.522,0.917,2.972,99.18875,-2.767,-1.603,98.9,0,109.5,13.65,-2.02,74.1
"2010-11-10 01:34:00",323049,5.275,112.1,6.497,1.143,2.523,99.18932,-2.766,-1.673,98.9,0,109.4,13.65,-2.02,74.1
"2010-11-10 01:34:30",323050,4.756,111.2,6.663,1.172,1.908,99.1879,-2.769,-1.665,98.9,0,109.5,13.65,-2.03,73.2
"2010-11-10 01:35:00",323051,3.794,110.2,6.004,0.904,0.509,99.18989,-2.764,-1.689,98.8,0,109.5,13.65,-2.02,72.2
"2010-11-10 01:35:30",323052,4.783,118.8,4.231,1.091,2.814,99.19074,-2.762,-1.636,98.9,0,109.5,13.65,-2.02,80.8
"2010-11-10 01:36:00",323053,5.024,123.5,5.05,0.93,3.067,99.19272,-2.757,-1.639,98.9,0,109.4,13.65,-2.01,85.5
"2010-11-10 01:36:30",323054,5.032,122.6,5.231,1.041,2.669,99.19527,-2.75,-1.605,98.9,0,109.4,13.65,-2.01,84.6
"2010-11-10 01:37:00",323055,4.881,128.1,5.215,1.028,2.481,99.19442,-2.753,-1.617,98.9,0,109.5,13.65,-2.01,90.1
"2010-11-10 01:37:30",323056,4.739,132.6,5.2,1.078,2.555,99.1978,-2.744,-1.662,98.8,0,109.5,13.65,-2.00,94.6
"2010-11-10 01:38:00",323057,4.108,130.4,7.056,1.15,0.851,99.19497,-2.751,-1.75,98.7,0,109.5,13.64,-2.01,92.4
"2010-11-10 01:38:30",323058,4.019,126.9,5.963,1.189,1.285,99.19469,-2.752,-1.598,98.9,0,109.5,13.64,-2.01,88.9
"2010-11-10 01:39:00",323059,5.144,129.1,5.968,0.83,3.094,99.19751,-2.745,-1.608,98.9,0,109.4,13.64,-2.00,91.1
"2010-11-10 01:39:30",323060,4.995,125.9,5.636,1.018,3.141,99.19553,-2.75,-1.617,98.9,0,109.4,13.64,-2.01,87.9
"2010-11-10 01:40:00",323061,4.861,125.1,5.908,0.979,3.324,99.19694,-2.746,-1.549,98.9,0,109.5,13.64,-2.00,87.1
"2010-11-10 01:40:30",323062,4.738,125.4,5.659,1.112,2.515,99.19835,-2.743,-1.598,98.9,0,109.4,13.64,-2.00,87.4
"2010-11-10 01:41:00",323063,3.736,122,5.445,0.93,0.386,99.19749,-2.745,-1.779,98.7,0,109.4,13.64,-2.00,84.0
"2010-11-10 01:41:30",323064,4.751,130.4,5.551,1.183,2.395,99.20088,-2.736,-1.613,98.9,0,109.4,13.64,-1.99,92.4
"2010-11-10 01:42:00",323065,4.964,131.5,6.186,1.071,2.987,99.20004,-2.738,-1.567,98.9,0,109.4,13.64,-2.00,93.5
"2010-11-10 01:42:30",323066,5.364,135.8,3.892,0.662,3.823,99.2023,-2.733,-1.563,98.9,0,109.4,13.64,-1.99,97.8
"2010-11-10 01:43:00",323067,5.196,127.4,5.957,0.928,3.642,99.20344,-2.73,-1.518,99,0,109.4,13.65,-1.99,89.4
"2010-11-10 01:43:30",323068,5.017,127.6,4.952,1.219,2.678,99.20399,-2.728,-1.643,98.9,0,109.4,13.65,-1.99,89.6
"2010-11-10 01:44:00",323069,4.215,122.9,5.369,1.107,1.419,99.20399,-2.728,-1.686,98.8,0,109.4,13.65,-1.99,84.9
"2010-11-10 01:44:30",323070,4.432,122.7,6.551,1.218,1.363,99.20483,-2.726,-1.71,98.8,0,109.4,13.65,-1.98,84.7
"2010-11-10 01:45:00",323071,5.322,127,6.279,1.002,2.852,99.20398,-2.728,-1.682,98.8,0,109.4,13.65,-1.99,89.0
"2010-11-10 01:45:30",323072,5.18,144.8,9.19,0.869,3.884,99.20653,-2.722,-1.528,99,0,109.4,13.65,-1.98,106.8
"2010-11-10 01:46:00",323073,4.535,148.4,13.6,0.943,3.634,99.21021,-2.712,-1.518,99,0,109.4,13.65,-1.97,110.4
"2010-11-10 01:46:30",323074,4.594,130.3,5.049,0.975,3.339,99.21275,-2.706,-1.59,98.9,0,109.4,13.65,-1.96,92.3
"2010-11-10 01:47:00",323075,3.141,122.4,4.865,1.043,0.168,99.21078,-2.711,-1.779,98.7,0,109.4,13.65,-1.97,84.4
"2010-11-10 01:47:30",323076,3.952,124.4,5.758,1.197,1.58,99.20879,-2.716,-1.704,98.8,0,109.5,13.65,-1.97,86.4
"2010-11-10 01:48:00",323077,4.178,126.2,5.849,1.206,2.358,99.21158,-2.709,-1.557,98.9,0,109.4,13.65,-1.97,88.2